When you browse on this site, cookies collect data to enhance your experience and personalize the content and advertising you see.
Visit our Privacy Policy to learn more. By continuing to use the site, you agree to this use of cookies and data.
  • In Österreich
  • Länderverzeichnis
  • Für 7 Tage
  • Wassertemperatur
  • Satellitenkarten
  • Wetterkarte
  • News
  • Widgets
  • user-avatar
    Anmelden

    Stündliche Wetter Fedkovo

    Heute, 20 Januar, Sonntag

    Zeit Temperatur Niederschläge Wind Luftdruck Luftfeuchtigkeit
    00:00 -8°C° 0 mm 4 m/S 741 mmHg 90%
    01:00 -8°C° 0 mm 5 m/S 741 mmHg 91%
    02:00 -8°C° 0 mm 5 m/S 740 mmHg 91%
    03:00 -8°C° 0.2 mm 5 m/S 740 mmHg 90%
    04:00 -8°C° 0.2 mm 6 m/S 739 mmHg 88%
    05:00 -8°C° 0.2 mm 6 m/S 739 mmHg 87%
    06:00 -7°C° 0.3 mm 7 m/S 738 mmHg 87%
    07:00 -7°C° 0.3 mm 7 m/S 738 mmHg 87%
    08:00 -7°C° 0.3 mm 7 m/S 738 mmHg 87%
    09:00 -5°C° 0.6 mm 6 m/S 738 mmHg 88%
    10:00 -5°C° 0.6 mm 6 m/S 737 mmHg 90%
    11:00 -5°C° 0.6 mm 6 m/S 737 mmHg 91%
    12:00 -5°C° 0.2 mm 5 m/S 737 mmHg 87%
    13:00 -5°C° 0.2 mm 5 m/S 737 mmHg 83%
    14:00 -6°C° 0.2 mm 5 m/S 737 mmHg 80%
    15:00 -6°C° 0.1 mm 5 m/S 737 mmHg 82%
    16:00 -7°C° 0.1 mm 4 m/S 737 mmHg 84%
    17:00 -7°C° 0.1 mm 4 m/S 738 mmHg 86%
    18:00 -8°C° 0 mm 4 m/S 738 mmHg 88%
    19:00 -8°C° 0 mm 3 m/S 738 mmHg 90%
    20:00 -9°C° 0 mm 3 m/S 738 mmHg 92%
    21:00 -10°C° 0 mm 3 m/S 739 mmHg 94%
    22:00 -10°C° 0 mm 2 m/S 739 mmHg 95%
    23:00 -13°C° 0 mm 2 m/S 739 mmHg 97%

    Morgen, 21 Januar, Montag

    Zeit Temperatur Niederschläge Wind Luftdruck Luftfeuchtigkeit
    00:00 -13°C° 0 mm 2 m/S 739 mmHg 97%
    01:00 -13°C° 0 mm 2 m/S 739 mmHg 97%
    02:00 -13°C° 0 mm 2 m/S 740 mmHg 97%
    03:00 -14°C° 0 mm 2 m/S 740 mmHg 97%
    04:00 -14°C° 0 mm 2 m/S 740 mmHg 97%
    05:00 -14°C° 0 mm 2 m/S 740 mmHg 97%
    06:00 -14°C° 0 mm 2 m/S 740 mmHg 97%
    07:00 -15°C° 0 mm 2 m/S 740 mmHg 97%
    08:00 -16°C° 0 mm 3 m/S 740 mmHg 96%
    09:00 -16°C° 0 mm 3 m/S 741 mmHg 96%
    10:00 -15°C° 0 mm 3 m/S 741 mmHg 95%
    11:00 -15°C° 0 mm 3 m/S 742 mmHg 94%
    12:00 -15°C° 0.1 mm 3 m/S 742 mmHg 93%
    13:00 -14°C° 0.1 mm 3 m/S 742 mmHg 93%
    14:00 -14°C° 0.1 mm 3 m/S 742 mmHg 92%
    15:00 -14°C° 0.1 mm 3 m/S 743 mmHg 93%
    16:00 -15°C° 0.1 mm 3 m/S 743 mmHg 94%
    17:00 -14°C° 0.1 mm 2 m/S 743 mmHg 95%
    18:00 -15°C° 0 mm 2 m/S 743 mmHg 96%
    19:00 -15°C° 0 mm 2 m/S 744 mmHg 97%
    20:00 -16°C° 0 mm 2 m/S 744 mmHg 97%
    21:00 -17°C° 0 mm 2 m/S 744 mmHg 98%
    22:00 -16°C° 0 mm 1 m/S 744 mmHg 98%
    23:00 -17°C° 0 mm 1 m/S 745 mmHg 99%

    übermorgen, 22 Januar, Dienstag

    Zeit Temperatur Niederschläge Wind Luftdruck Luftfeuchtigkeit
    00:00 -17°C° 0 mm 1 m/S 745 mmHg 99%
    01:00 -17°C° 0 mm 1 m/S 745 mmHg 99%
    02:00 -18°C° 0 mm 1 m/S 745 mmHg 99%
    03:00 -18°C° 0 mm 1 m/S 745 mmHg 99%
    04:00 -19°C° 0 mm 0 m/S 745 mmHg 99%
    05:00 -20°C° 0 mm 0 m/S 745 mmHg 99%
    06:00 -20°C° 0 mm 0 m/S 745 mmHg 99%
    07:00 -20°C° 0 mm 1 m/S 745 mmHg 99%
    08:00 -20°C° 0 mm 1 m/S 745 mmHg 99%
    09:00 -19°C° 0 mm 1 m/S 746 mmHg 98%
    10:00 -17°C° 0 mm 1 m/S 746 mmHg 96%
    11:00 -16°C° 0 mm 1 m/S 746 mmHg 94%
    12:00 -15°C° 0 mm 1 m/S 746 mmHg 94%
    13:00 -14°C° 0 mm 1 m/S 746 mmHg 93%
    14:00 -13°C° 0 mm 1 m/S 746 mmHg 93%
    15:00 -15°C° 0 mm 1 m/S 746 mmHg 94%
    16:00 -16°C° 0 mm 1 m/S 746 mmHg 95%
    17:00 -18°C° 0 mm 1 m/S 746 mmHg 96%
    18:00 -18°C° 0 mm 1 m/S 746 mmHg 96%
    19:00 -18°C° 0 mm 1 m/S 746 mmHg 97%
    20:00 -19°C° 0 mm 1 m/S 746 mmHg 98%
    21:00 -18°C° 0 mm 1 m/S 746 mmHg 98%
    22:00 -18°C° 0 mm 1 m/S 746 mmHg 98%
    23:00 -17°C° 0 mm 1 m/S 746 mmHg 98%

    23 Januar, Mittwoch

    Zeit Temperatur Niederschläge Wind Luftdruck Luftfeuchtigkeit
    00:00 -17°C° 0 mm 1 m/S 746 mmHg 98%
    01:00 -16°C° 0 mm 1 m/S 746 mmHg 98%
    02:00 -17°C° 0 mm 2 m/S 746 mmHg 98%
    03:00 -17°C° 0 mm 2 m/S 746 mmHg 98%
    04:00 -16°C° 0 mm 2 m/S 745 mmHg 98%
    05:00 -15°C° 0 mm 2 m/S 745 mmHg 98%
    06:00 -15°C° 0 mm 2 m/S 745 mmHg 97%
    07:00 -14°C° 0 mm 2 m/S 745 mmHg 97%
    08:00 -14°C° 0 mm 2 m/S 745 mmHg 97%
    09:00 -13°C° 0 mm 2 m/S 745 mmHg 96%
    10:00 -12°C° 0 mm 2 m/S 745 mmHg 96%
    11:00 -10°C° 0 mm 2 m/S 746 mmHg 95%
    12:00 -10°C° 0 mm 3 m/S 745 mmHg 94%
    13:00 -9°C° 0 mm 3 m/S 745 mmHg 93%
    14:00 -9°C° 0 mm 3 m/S 745 mmHg 92%
    15:00 -9°C° 0 mm 3 m/S 745 mmHg 93%
    16:00 -9°C° 0 mm 3 m/S 745 mmHg 93%
    17:00 -9°C° 0 mm 3 m/S 745 mmHg 93%
    18:00 -9°C° 0 mm 3 m/S 746 mmHg 93%
    19:00 -10°C° 0 mm 3 m/S 746 mmHg 93%
    20:00 -10°C° 0 mm 3 m/S 746 mmHg 94%
    21:00 -13°C° 0 mm 3 m/S 746 mmHg 95%
    22:00 -13°C° 0 mm 2 m/S 746 mmHg 95%
    23:00 -15°C° 0 mm 2 m/S 746 mmHg 96%

    24 Januar, Donnerstag

    Zeit Temperatur Niederschläge Wind Luftdruck Luftfeuchtigkeit
    00:00 -15°C° 0 mm 2 m/S 746 mmHg 96%
    01:00 -15°C° 0 mm 2 m/S 747 mmHg 96%
    02:00 -16°C° 0 mm 2 m/S 747 mmHg 95%
    03:00 -16°C° 0 mm 2 m/S 747 mmHg 94%
    04:00 -17°C° 0 mm 2 m/S 747 mmHg 93%
    05:00 -17°C° 0 mm 2 m/S 746 mmHg 92%
    06:00 -17°C° 0 mm 2 m/S 746 mmHg 91%
    07:00 -17°C° 0 mm 2 m/S 746 mmHg 90%
    08:00 -17°C° 0 mm 2 m/S 746 mmHg 90%
    09:00 -16°C° 0 mm 2 m/S 747 mmHg 88%
    10:00 -15°C° 0 mm 2 m/S 747 mmHg 86%
    11:00 -14°C° 0 mm 2 m/S 747 mmHg 84%
    12:00 -13°C° 0 mm 2 m/S 747 mmHg 85%
    13:00 -12°C° 0 mm 2 m/S 746 mmHg 85%
    14:00 -10°C° 0 mm 2 m/S 746 mmHg 86%
    15:00 -10°C° 0 mm 2 m/S 746 mmHg 86%
    16:00 -10°C° 0 mm 2 m/S 746 mmHg 87%
    17:00 -10°C° 0 mm 2 m/S 746 mmHg 87%
    18:00 -10°C° 0 mm 2 m/S 746 mmHg 87%
    19:00 -10°C° 0 mm 2 m/S 746 mmHg 86%
    20:00 -12°C° 0 mm 3 m/S 746 mmHg 86%
    21:00 -12°C° 0.1 mm 3 m/S 746 mmHg 87%
    22:00 -12°C° 0.1 mm 3 m/S 746 mmHg 88%
    23:00 -10°C° 0.1 mm 2 m/S 746 mmHg 89%

    25 Januar, Freitag

    Zeit Temperatur Niederschläge Wind Luftdruck Luftfeuchtigkeit
    00:00 -12°C° 0.1 mm 3 m/S 746 mmHg 89%
    01:00 -12°C° 0.1 mm 3 m/S 746 mmHg 89%
    02:00 -12°C° 0.1 mm 3 m/S 746 mmHg 89%
    03:00 -12°C° 0 mm 3 m/S 746 mmHg 88%
    04:00 -12°C° 0 mm 3 m/S 745 mmHg 87%
    05:00 -12°C° 0 mm 3 m/S 745 mmHg 87%
    06:00 -13°C° 0 mm 3 m/S 745 mmHg 86%
    07:00 -13°C° 0 mm 3 m/S 745 mmHg 86%
    08:00 -15°C° 0 mm 4 m/S 745 mmHg 86%
    09:00 -13°C° 0 mm 3 m/S 745 mmHg 87%
    10:00 -13°C° 0 mm 3 m/S 745 mmHg 88%
    11:00 -13°C° 0 mm 3 m/S 745 mmHg 89%
    12:00 -13°C° 0.1 mm 3 m/S 744 mmHg 90%
    13:00 -13°C° 0.1 mm 3 m/S 744 mmHg 91%
    14:00 -12°C° 0.1 mm 3 m/S 744 mmHg 93%
    15:00 -13°C° 0.1 mm 3 m/S 743 mmHg 93%
    16:00 -13°C° 0.1 mm 3 m/S 743 mmHg 93%
    17:00 -14°C° 0.1 mm 3 m/S 743 mmHg 94%
    18:00 -14°C° 0.2 mm 3 m/S 743 mmHg 94%
    19:00 -14°C° 0.2 mm 3 m/S 743 mmHg 94%
    20:00 -14°C° 0.2 mm 3 m/S 743 mmHg 95%
    21:00 -14°C° 0.3 mm 3 m/S 742 mmHg 95%
    22:00 -13°C° 0.3 mm 2 m/S 742 mmHg 95%
    23:00 -14°C° 0.3 mm 2 m/S 742 mmHg 96%
    Mehr zeigen